Theta_e
290 290 290 290 291 291 292 291 292 290 292 299 301 301 302 303 304 304 306 309 311 311 313 314 314 313 312
289 289 290 290 291 290 289 290 288 288 292 298 297 292 289 292 298 301 302 305 308 309 310 313 314 314 312
289 289 289 289 289 288 288 288 286 288 292 293 290 289 290 290 293 295 298 301 305 307 308 311 312 312 312
289 288 287 287 287 287 287 286 286 291 289 289 288 289 289 289 292 293 296 298 301 305 306 308 311 310 310
287 286 286 286 287 287 286 285 286 289 286 286 287 287 288 290 293 291 292 298 300 301 303 305 308 309 308
285 285 285 285 285 285 285 285 285 286 284 286 286 286 289 291 288 287 289 298 298 299 301 303 305 307 306
285 285 284 284 284 284 285 285 285 284 285 285 286 287 289 286 287 294 296 297 297 294 297 300 303 305 305
285 284 283 283 284 285 285 284 284 284 284 285 287 287 284 284 291 292 294 293 290 289 295 297 300 304 303
285 284 284 285 285 285 284 284 283 283 283 284 285 283 283 283 286 291 288 288 287 290 291 293 296 300 302
284 283 283 283 283 284 284 283 283 282 285 283 283 282 281 282 285 284 284 286 287 286 289 291 293 297 299
283 282 283 283 282 283 283 282 281 282 282 282 281 280 282 282 282 284 284 286 285 286 286 290 292 294 298
282 282 282 283 282 282 281 281 281 281 281 280 280 280 281 283 282 281 281 282 285 285 288 291 292 294 296
282 282 282 282 281 281 280 280 280 279 280 279 281 281 279 278 280 280 282 283 284 287 283 284 289 291 293
280 281 281 281 281 280 280 279 279 279 279 279 279 277 280 279 280 282 281 280 280 282 284 287 290 291 291
280 281 281 281 280 280 279 279 279 278 277 277 277 275 278 278 277 278 279 281 282 284 286 288 289 290 290
280 280 280 280 279 279 279 278 278 277 277 276 275 274 276 276 278 279 279 279 282 283 282 283 287 289 289
280 280 280 279 279 278 278 277 277 276 275 275 274 273 276 275 275 275 278 279 278 279 280 282 284 286 287
Wind_Speed
15 18 22 23 23 23 22 23 21 23 20 19 17 19 20 21 20 22 23 21 21 22 22 23 24 23 24
18 22 22 22 22 24 24 22 26 27 18 15 18 26 28 24 23 24 23 23 23 22 22 23 26 26 24
13 18 20 21 24 26 25 27 32 25 12 15 19 29 25 23 21 22 21 21 21 22 22 23 23 29 27
13 15 17 18 19 25 30 32 37 13 16 21 29 28 28 27 24 22 22 23 22 21 21 21 22 23 29
11 14 15 20 20 21 24 33 32 14 29 35 33 30 27 31 23 25 27 26 23 21 23 23 23 22 24
11 13 15 17 19 22 26 22 13 13 42 42 32 37 27 20 33 33 24 18 23 25 24 24 25 23 24
14 14 15 15 19 26 24 21 19 32 28 30 36 32 31 35 27 16 17 17 22 26 30 29 26 24 23
15 16 17 16 16 19 23 27 28 24 18 13 29 30 41 41 10 14 14 18 27 30 27 29 28 24 21
14 14 13 14 15 18 20 22 20 20 21 17 14 36 37 26 15 10 21 29 29 23 27 27 30 23 16
17 18 18 19 15 15 16 17 19 14 4 20 19 18 17 17 15 33 31 27 22 34 27 27 26 26 22
20 22 21 22 19 17 17 17 21 21 21 16 19 24 13 25 34 30 32 28 35 28 32 28 24 25 24
24 25 24 23 23 22 21 20 21 26 29 28 25 27 24 28 32 38 36 36 27 34 24 25 28 23 22
23 23 23 25 22 20 22 25 30 25 20 23 22 24 31 28 32 34 32 35 31 17 39 34 31 29 27
26 27 26 23 22 21 24 24 26 26 24 18 24 27 28 28 29 35 33 25 41 34 33 30 28 26 27
25 23 23 22 23 22 23 24 25 23 23 23 27 29 31 34 34 33 35 31 30 32 29 32 28 25 26
26 26 25 24 23 23 23 23 25 23 25 27 28 32 29 32 24 32 28 30 28 25 29 29 31 26 28
19 20 21 23 20 23 22 21 22 23 26 27 27 26 18 12 28 23 27 23 32 33 29 27 32 32 28
Wind_Direction
319 344 349 354 358 1 2 358 358 352 354 357 357 349 338 333 336 340 343 332 315 302 283 273 270 274 284
325 344 348 355 356 349 351 350 351 353 350 355 343 340 331 324 321 321 327 334 328 315 297 277 274 274 273
312 334 339 354 347 344 348 344 349 354 13 342 337 343 348 346 338 340 328 322 325 324 310 290 279 273 272
317 328 337 347 346 348 342 344 345 7 347 336 337 349 349 348 340 341 343 336 322 321 323 303 287 287 275
314 322 334 345 352 342 341 339 347 345 331 339 343 344 346 342 349 348 343 340 337 327 323 322 301 288 286
304 312 323 334 336 337 339 349 342 328 338 328 336 336 337 341 340 332 328 341 352 351 340 321 314 294 287
288 302 311 321 321 327 331 325 307 317 329 314 328 328 331 328 339 344 340 328 334 341 337 334 319 305 291
268 283 294 304 313 317 315 311 312 320 332 292 324 323 323 329 337 330 325 329 331 325 329 333 330 312 300
267 276 281 292 298 302 303 314 317 317 326 328 326 326 323 326 312 300 314 314 320 330 322 321 331 319 305
256 264 268 278 283 276 282 292 300 316 334 338 326 352 325 313 301 316 321 331 325 325 329 329 326 322 313
274 279 279 283 287 270 268 272 287 273 288 309 301 314 293 303 304 310 320 315 320 323 326 326 319 318 294
280 279 276 276 288 271 280 280 272 276 288 294 291 295 290 296 296 304 308 315 312 319 325 325 319 315 297
270 270 267 278 280 270 280 288 293 291 284 296 291 295 295 287 293 298 305 312 313 312 312 308 303 305 304
268 271 277 273 262 265 283 287 288 283 291 286 284 303 289 291 291 291 296 294 298 306 311 299 294 291 296
264 265 261 264 266 272 272 272 270 281 289 290 294 307 286 289 289 284 289 293 294 300 307 304 295 294 287
258 256 258 259 262 267 269 267 268 277 284 291 301 308 292 296 278 279 290 294 298 305 314 311 306 300 293
265 268 263 260 262 268 261 257 265 273 278 286 295 290 285 284 290 290 288 303 310 307 307 303 296 294 291